JKK35LF LEPA-EKCH

Flight info

Callsign JKK35LF
Flight time 2h 33m
Altitude 34000
Route MEROS N853 LUMAS DCT MAXIR DCT LUSOL DCT BODRU DCT OKTET DCT IRMAR DCT KINES DCT VANAS DCT ESOKO DCT GODRA DCT LOKTA DCT TEDGO DCT HAREM DCT LOHRE DCT BERXO DCT MAKEL N851 GESKA Z711 MONAK
Aircraft MD83/M-SDFGIRWY/S

Departure

Time 2026-05-04 16:03
Airport Palma de Mallorca Airport (LEPA)

Arrival

Time 2026-05-04 18:36
Airport Copenhagen Kastrup Airport (EKCH)
Time Latitude Longitude Altitude Speed Heading
2026-05-04 15:25 39.55294 2.73298 39 ft 0 kts 197°
2026-05-04 15:54 39.55315 2.73305 39 ft 4 kts 190°
2026-05-04 15:54 39.55342 2.73308 39 ft 4 kts 173°
2026-05-04 15:54 39.55363 2.73299 39 ft 4 kts 134°
2026-05-04 15:55 39.55369 2.73289 39 ft 3 kts 64°
2026-05-04 15:55 39.55365 2.73281 39 ft 0 kts 59°
2026-05-04 15:57 39.55366 2.73281 39 ft 0 kts 59°
2026-05-04 15:58 39.55368 2.73286 39 ft 2 kts 59°
2026-05-04 15:58 39.55388 2.73330 39 ft 8 kts 59°
2026-05-04 15:58 39.55418 2.73394 39 ft 8 kts 57°
2026-05-04 15:58 39.55449 2.73458 39 ft 9 kts 58°
2026-05-04 15:59 39.55481 2.73526 39 ft 9 kts 58°
2026-05-04 15:59 39.55524 2.73566 39 ft 8 kts 347°
2026-05-04 15:59 39.55574 2.73535 39 ft 9 kts 330°
2026-05-04 15:59 39.55642 2.73505 39 ft 12 kts
2026-05-04 16:00 39.55700 2.73593 39 ft 15 kts 60°
2026-05-04 16:00 39.55758 2.73720 39 ft 18 kts 58°
2026-05-04 16:00 39.55826 2.73864 39 ft 19 kts 58°
2026-05-04 16:00 39.55895 2.74008 39 ft 19 kts 58°
2026-05-04 16:01 39.55960 2.74148 39 ft 18 kts 59°
2026-05-04 16:01 39.56028 2.74290 39 ft 18 kts 58°
2026-05-04 16:01 39.56099 2.74425 39 ft 18 kts 39°
2026-05-04 16:01 39.56209 2.74415 39 ft 17 kts 327°
2026-05-04 16:02 39.56238 2.74289 39 ft 16 kts 244°
2026-05-04 16:02 39.56137 2.74076 39 ft 51 kts 238°
2026-05-04 16:02 39.55347 2.72404 92 ft 153 kts 238°
2026-05-04 16:03 39.54843 2.71174 705 ft 157 kts 238°
2026-05-04 16:03 39.54292 2.69935 1385 ft 157 kts 237°
2026-05-04 16:03 39.53763 2.68736 1948 ft 165 kts 238°
2026-05-04 16:03 39.53136 2.67464 2409 ft 170 kts 236°
2026-05-04 16:04 39.52462 2.66188 2939 ft 173 kts 236°
2026-05-04 16:04 39.51041 2.63476 3759 ft 189 kts 236°
2026-05-04 16:04 39.50298 2.62058 4162 ft 196 kts 235°
2026-05-04 16:05 39.49341 2.60745 4425 ft 209 kts 216°
2026-05-04 16:05 39.48014 2.59760 4529 ft 232 kts 201°
2026-05-04 16:05 39.44891 2.61253 5342 ft 279 kts 124°
2026-05-04 16:06 39.44343 2.63713 5949 ft 292 kts 97°
2026-05-04 16:06 39.44208 2.70878 7540 ft 305 kts 93°
2026-05-04 16:07 39.44220 2.74529 8370 ft 308 kts 92°
2026-05-04 16:07 39.44135 2.82948 10088 ft 319 kts 95°
2026-05-04 16:08 39.44055 2.85892 10245 ft 337 kts 95°
2026-05-04 16:08 39.43732 2.95600 10743 ft 382 kts 95°
2026-05-04 16:09 39.43505 3.02573 11676 ft 390 kts 95°
2026-05-04 16:09 39.43288 3.09617 12816 ft 393 kts 94°
2026-05-04 16:10 39.43049 3.16694 13894 ft 399 kts 95°
2026-05-04 16:11 39.43511 3.27570 15153 ft 416 kts 66°
2026-05-04 16:11 39.44852 3.30887 15650 ft 418 kts 58°
2026-05-04 16:12 39.49532 3.40604 16933 ft 430 kts 57°
2026-05-04 16:12 39.54259 3.50607 18350 ft 438 kts 58°
2026-05-04 16:13 39.57391 3.57481 19080 ft 447 kts 58°
2026-05-04 16:13 39.60513 3.64363 19794 ft 455 kts 59°
2026-05-04 16:14 39.63761 3.71502 20509 ft 462 kts 59°
2026-05-04 16:14 39.67033 3.78719 21224 ft 470 kts 59°
2026-05-04 16:15 39.72051 3.89867 22318 ft 481 kts 59°
2026-05-04 16:16 39.75434 3.97365 23120 ft 486 kts 59°
2026-05-04 16:16 39.80636 4.08891 24115 ft 495 kts 59°
2026-05-04 16:17 39.84164 4.16571 24715 ft 500 kts 53°
2026-05-04 16:18 39.92704 4.23505 25553 ft 486 kts
2026-05-04 16:18 39.95996 4.24237 25848 ft 486 kts
2026-05-04 16:19 40.06140 4.26195 26730 ft 493 kts
2026-05-04 16:19 40.12890 4.27731 27463 ft 494 kts
2026-05-04 16:20 40.23053 4.30198 28408 ft 498 kts
2026-05-04 16:20 40.29864 4.31834 29085 ft 498 kts
2026-05-04 16:21 40.40096 4.34269 30046 ft 499 kts
2026-05-04 16:22 40.46873 4.35889 30745 ft 494 kts
2026-05-04 16:22 40.56998 4.38315 31521 ft 493 kts
2026-05-04 16:23 40.67089 4.40739 32336 ft 489 kts
2026-05-04 16:24 40.80425 4.43939 33271 ft 486 kts
2026-05-04 16:25 40.87063 4.45536 33722 ft 485 kts
2026-05-04 16:26 41.00474 4.48782 33916 ft 499 kts
2026-05-04 16:26 41.10834 4.51305 33925 ft 509 kts
2026-05-04 16:28 41.28094 4.55526 33934 ft 503 kts
2026-05-04 16:29 41.52218 4.61442 33931 ft 505 kts
2026-05-04 16:31 41.69426 4.65697 33933 ft 503 kts
2026-05-04 16:31 41.79197 4.71049 33925 ft 517 kts 29°
2026-05-04 16:32 41.88323 4.78784 33935 ft 517 kts 29°
2026-05-04 16:33 42.00596 4.88702 33938 ft 514 kts 28°
2026-05-04 16:34 42.09761 4.96075 33921 ft 515 kts 28°
2026-05-04 16:35 42.28047 5.10995 33945 ft 512 kts 28°
2026-05-04 16:36 42.37178 5.18458 33954 ft 512 kts 28°
2026-05-04 16:37 42.46323 5.25954 33955 ft 512 kts 28°
2026-05-04 16:38 42.58446 5.35986 33957 ft 509 kts 28°
2026-05-04 16:39 42.73599 5.48520 33979 ft 511 kts 27°
2026-05-04 16:40 42.85778 5.58672 33971 ft 512 kts 28°
2026-05-04 16:41 43.00819 5.71283 33966 ft 507 kts 28°
2026-05-04 16:43 43.15849 5.83928 34011 ft 507 kts 28°
2026-05-04 16:43 43.24851 5.91534 34013 ft 506 kts 28°
2026-05-04 16:45 43.43253 6.04697 34034 ft 487 kts
2026-05-04 16:46 43.60012 6.06083 34016 ft 479 kts 357°
2026-05-04 16:47 43.73326 6.07427 34025 ft 480 kts 358°
2026-05-04 16:48 43.82945 6.11465 34019 ft 495 kts 23°
2026-05-04 16:48 43.85970 6.13646 34019 ft 495 kts 24°
2026-05-04 16:49 43.97191 6.21606 34029 ft 490 kts 22°
2026-05-04 16:50 44.09439 6.29930 34040 ft 491 kts 22°
2026-05-04 16:51 44.18647 6.36254 34034 ft 491 kts 23°
2026-05-04 16:52 44.30860 6.44721 34048 ft 489 kts 23°
2026-05-04 16:53 44.39965 6.51036 34046 ft 489 kts 22°
2026-05-04 16:54 44.52152 6.59511 34076 ft 486 kts 23°
2026-05-04 16:55 44.70259 6.72188 34106 ft 487 kts 23°
2026-05-04 16:56 44.85917 6.78957 34111 ft 466 kts 351°
2026-05-04 16:57 44.95586 6.78049 34119 ft 466 kts 351°
2026-05-04 16:58 45.08530 6.77089 34125 ft 466 kts 352°
2026-05-04 17:00 45.27752 6.75869 34095 ft 465 kts 352°
2026-05-04 17:01 45.43747 6.74879 34089 ft 471 kts 360°
2026-05-04 17:01 45.49974 6.77760 34095 ft 483 kts 27°
2026-05-04 17:02 45.55743 6.82776 34088 ft 485 kts 29°
2026-05-04 17:03 45.64381 6.90271 34109 ft 484 kts 28°
2026-05-04 17:03 45.73074 6.97480 34107 ft 484 kts 27°
2026-05-04 17:04 45.84736 7.07192 34104 ft 485 kts 28°
2026-05-04 17:05 45.96320 7.16992 34093 ft 483 kts 28°
2026-05-04 17:06 46.04972 7.24316 34046 ft 480 kts 28°
2026-05-04 17:07 46.12667 7.30829 34041 ft 480 kts 28°
2026-05-04 17:07 46.19382 7.36529 34052 ft 481 kts 29°
2026-05-04 17:08 46.28004 7.43920 34052 ft 481 kts 29°
2026-05-04 17:09 46.33768 7.48882 34048 ft 482 kts 29°
2026-05-04 17:09 46.39536 7.53829 34028 ft 483 kts 29°
2026-05-04 17:10 46.53993 7.66299 34021 ft 483 kts 29°
2026-05-04 17:11 46.59746 7.71281 34031 ft 483 kts 30°
2026-05-04 17:12 46.68322 7.79093 34023 ft 484 kts 31°
2026-05-04 17:13 46.82592 7.92113 34019 ft 485 kts 31°
2026-05-04 17:14 46.94000 8.02518 34004 ft 483 kts 31°
2026-05-04 17:15 47.02531 8.10387 33995 ft 482 kts 31°
2026-05-04 17:16 47.13873 8.20854 34004 ft 482 kts 32°
2026-05-04 17:17 47.25175 8.31336 33979 ft 478 kts 32°
2026-05-04 17:18 47.36413 8.41828 33982 ft 478 kts 32°
2026-05-04 17:19 47.47627 8.52357 33994 ft 479 kts 32°
2026-05-04 17:20 47.58898 8.62955 33991 ft 480 kts 32°
2026-05-04 17:20 47.67308 8.70909 33980 ft 480 kts 32°
2026-05-04 17:21 47.78520 8.81606 33962 ft 478 kts 32°
2026-05-04 17:22 47.84128 8.86955 33963 ft 479 kts 32°
2026-05-04 17:23 47.95325 8.97668 33959 ft 475 kts 32°
2026-05-04 17:24 48.03610 9.05615 33962 ft 474 kts 32°
2026-05-04 17:25 48.14740 9.16310 33964 ft 476 kts 30°
2026-05-04 17:25 48.20963 9.19309 33970 ft 472 kts
2026-05-04 17:26 48.27461 9.20319 33961 ft 472 kts
2026-05-04 17:27 48.43774 9.22788 33968 ft 473 kts
2026-05-04 17:28 48.56870 9.25062 33966 ft 473 kts
2026-05-04 17:29 48.76474 9.28156 33971 ft 473 kts
2026-05-04 17:31 48.92869 9.30657 33976 ft 474 kts
2026-05-04 17:32 49.07323 9.32899 33978 ft 470 kts
2026-05-04 17:33 49.20334 9.34928 33975 ft 472 kts
2026-05-04 17:34 49.33335 9.36951 33981 ft 471 kts
2026-05-04 17:35 49.49679 9.39520 33975 ft 473 kts
2026-05-04 17:36 49.56264 9.40550 33979 ft 473 kts
2026-05-04 17:36 49.62772 9.41584 33989 ft 472 kts
2026-05-04 17:37 49.69318 9.42638 33976 ft 471 kts
2026-05-04 17:37 49.75812 9.43678 33975 ft 472 kts
2026-05-04 17:38 49.82334 9.44719 33987 ft 472 kts
2026-05-04 17:38 49.88864 9.45767 33986 ft 473 kts
2026-05-04 17:39 49.98647 9.47337 33987 ft 471 kts
2026-05-04 17:39 50.05143 9.48386 33982 ft 471 kts
2026-05-04 17:40 50.11627 9.50058 33975 ft 474 kts
2026-05-04 17:40 50.18064 9.52380 33969 ft 474 kts 10°
2026-05-04 17:41 50.24448 9.54638 33966 ft 474 kts
2026-05-04 17:41 50.30882 9.56811 33975 ft 471 kts
2026-05-04 17:42 50.37295 9.58939 33968 ft 468 kts
2026-05-04 17:42 50.43634 9.61061 33968 ft 469 kts
2026-05-04 17:43 50.50053 9.63233 33979 ft 471 kts
2026-05-04 17:43 50.56434 9.65419 33967 ft 472 kts
2026-05-04 17:44 50.62866 9.67606 33965 ft 471 kts
2026-05-04 17:44 50.69243 9.69778 33966 ft 470 kts
2026-05-04 17:45 50.75659 9.71970 33967 ft 470 kts
2026-05-04 17:45 50.82026 9.74154 33968 ft 471 kts
2026-05-04 17:46 50.88448 9.76365 33968 ft 471 kts
2026-05-04 17:46 50.94838 9.78568 33976 ft 472 kts
2026-05-04 17:47 51.01261 9.80791 33971 ft 472 kts
2026-05-04 17:47 51.06615 9.82647 33970 ft 473 kts
2026-05-04 17:48 51.13067 9.84894 33973 ft 472 kts
2026-05-04 17:48 51.19446 9.87132 33982 ft 471 kts
2026-05-04 17:49 51.25810 9.89803 33977 ft 474 kts 15°
2026-05-04 17:49 51.31998 9.93362 33977 ft 476 kts 17°
2026-05-04 17:50 51.38185 9.96943 33975 ft 476 kts 16°
2026-05-04 17:50 51.44445 10.00447 33979 ft 477 kts 15°
2026-05-04 17:51 51.50718 10.03902 33980 ft 476 kts 15°
2026-05-04 17:51 51.56959 10.07357 33978 ft 476 kts 15°
2026-05-04 17:52 51.63255 10.10871 33986 ft 477 kts 15°
2026-05-04 17:52 51.69528 10.14412 33981 ft 479 kts 15°
2026-05-04 17:53 51.75799 10.17949 33976 ft 479 kts 15°
2026-05-04 17:53 51.82089 10.21497 33976 ft 478 kts 15°
2026-05-04 17:54 51.88366 10.25047 33982 ft 477 kts 15°
2026-05-04 17:54 51.94639 10.28601 33970 ft 478 kts 15°
2026-05-04 17:55 52.00933 10.32181 33971 ft 479 kts 15°
2026-05-04 17:55 52.07217 10.35776 33968 ft 478 kts 15°
2026-05-04 17:56 52.13489 10.39392 33949 ft 477 kts 15°
2026-05-04 17:56 52.19738 10.42979 33944 ft 476 kts 15°
2026-05-04 17:57 52.25981 10.46570 33941 ft 477 kts 15°
2026-05-04 17:57 52.32194 10.50160 33945 ft 477 kts 15°
2026-05-04 17:58 52.38457 10.53791 33942 ft 477 kts 15°
2026-05-04 17:58 52.44741 10.57445 33947 ft 478 kts 15°
2026-05-04 17:59 52.51010 10.61117 33946 ft 478 kts 15°
2026-05-04 18:00 52.60399 10.66623 33958 ft 477 kts 15°
2026-05-04 18:00 52.66633 10.70275 33957 ft 477 kts 15°
2026-05-04 18:01 52.72888 10.73952 33960 ft 477 kts 14°
2026-05-04 18:01 52.79108 10.77629 33966 ft 477 kts 14°
2026-05-04 18:02 52.88501 10.83225 33955 ft 478 kts 15°
2026-05-04 18:02 52.94770 10.86962 33954 ft 479 kts 14°
2026-05-04 18:03 53.01045 10.90706 33953 ft 479 kts 14°
2026-05-04 18:03 53.07317 10.94461 33955 ft 479 kts 15°
2026-05-04 18:04 53.13554 10.98206 33954 ft 479 kts 14°
2026-05-04 18:05 53.22980 11.03897 33970 ft 479 kts 14°
2026-05-04 18:05 53.29213 11.07708 33958 ft 477 kts 14°
2026-05-04 18:06 53.38560 11.13380 33957 ft 476 kts 14°
2026-05-04 18:06 53.44801 11.17176 33961 ft 477 kts 14°
2026-05-04 18:07 53.51009 11.20983 33969 ft 474 kts 14°
2026-05-04 18:07 53.57159 11.24766 33963 ft 468 kts 14°
2026-05-04 18:08 53.63289 11.28545 33966 ft 469 kts 14°
2026-05-04 18:08 53.69367 11.32311 33459 ft 464 kts 14°
2026-05-04 18:09 53.75342 11.36032 32685 ft 449 kts 14°
2026-05-04 18:09 53.81322 11.39723 31895 ft 471 kts 14°
2026-05-04 18:10 53.84405 11.41618 31659 ft 483 kts 14°
2026-05-04 18:10 53.87587 11.43593 31390 ft 487 kts 14°
2026-05-04 18:10 53.90771 11.45591 31140 ft 486 kts 15°
2026-05-04 18:10 53.93928 11.47584 30889 ft 482 kts 15°
2026-05-04 18:11 53.97071 11.49575 30662 ft 480 kts 14°
2026-05-04 18:11 54.00200 11.51561 30411 ft 478 kts 14°
2026-05-04 18:11 54.03324 11.53541 30168 ft 478 kts 14°
2026-05-04 18:11 54.06344 11.55804 29909 ft 482 kts 22°
2026-05-04 18:12 54.09060 11.58317 29648 ft 482 kts 24°
2026-05-04 18:12 54.11780 11.60970 29379 ft 479 kts 25°
2026-05-04 18:12 54.14664 11.63762 29095 ft 473 kts 24°
2026-05-04 18:12 54.17547 11.66485 28811 ft 469 kts 23°
2026-05-04 18:13 54.20416 11.69134 28552 ft 466 kts 22°
2026-05-04 18:13 54.23258 11.71717 28132 ft 466 kts 21°
2026-05-04 18:13 54.28954 11.76835 27029 ft 456 kts 21°
2026-05-04 18:14 54.31661 11.79276 26522 ft 451 kts 21°
2026-05-04 18:14 54.34413 11.81770 26016 ft 445 kts 21°
2026-05-04 18:14 54.37146 11.84256 25516 ft 440 kts 21°
2026-05-04 18:15 54.42466 11.89125 24574 ft 430 kts 21°
2026-05-04 18:15 54.47691 11.93958 23630 ft 423 kts 21°
2026-05-04 18:15 54.50261 11.96326 23098 ft 419 kts 21°
2026-05-04 18:16 54.52829 11.98688 22546 ft 415 kts 22°
2026-05-04 18:16 54.55365 12.01020 22010 ft 411 kts 22°
2026-05-04 18:16 54.57882 12.03338 21482 ft 407 kts 22°
2026-05-04 18:17 54.62830 12.07909 20454 ft 399 kts 23°
2026-05-04 18:17 54.65264 12.10163 19954 ft 395 kts 23°
2026-05-04 18:17 54.70031 12.14582 19033 ft 386 kts 24°
2026-05-04 18:18 54.72370 12.16764 18607 ft 383 kts 24°
2026-05-04 18:18 54.74717 12.18958 18170 ft 381 kts 24°
2026-05-04 18:18 54.77050 12.21143 17677 ft 379 kts 24°
2026-05-04 18:18 54.79367 12.23327 17186 ft 377 kts 25°
2026-05-04 18:19 54.83924 12.27640 16258 ft 372 kts 25°
2026-05-04 18:19 54.86203 12.29793 15794 ft 369 kts 25°
2026-05-04 18:19 54.88427 12.31891 15397 ft 366 kts 24°
2026-05-04 18:20 54.90672 12.34008 14990 ft 365 kts 24°
2026-05-04 18:20 54.92881 12.36091 14577 ft 364 kts 24°
2026-05-04 18:20 54.95082 12.38165 14170 ft 362 kts 24°
2026-05-04 18:20 54.97297 12.40254 13762 ft 361 kts 24°
2026-05-04 18:21 54.99504 12.42338 13308 ft 358 kts 24°
2026-05-04 18:21 55.01664 12.44381 12861 ft 355 kts 24°
2026-05-04 18:21 55.03839 12.46441 12414 ft 351 kts 24°
2026-05-04 18:21 55.05962 12.48455 11977 ft 348 kts 25°
2026-05-04 18:22 55.08083 12.50469 11545 ft 344 kts 25°
2026-05-04 18:22 55.10175 12.52462 11103 ft 338 kts 25°
2026-05-04 18:22 55.12200 12.54393 10701 ft 332 kts 25°
2026-05-04 18:22 55.14212 12.56311 10299 ft 326 kts 25°
2026-05-04 18:23 55.16175 12.58174 9889 ft 321 kts 24°
2026-05-04 18:23 55.18129 12.60026 9489 ft 314 kts 24°
2026-05-04 18:23 55.20012 12.61818 9225 ft 303 kts 25°
2026-05-04 18:23 55.21842 12.63565 8951 ft 296 kts 24°
2026-05-04 18:24 55.23654 12.65220 8693 ft 291 kts 19°
2026-05-04 18:24 55.25528 12.66477 8437 ft 287 kts 14°
2026-05-04 18:24 55.27404 12.67554 8178 ft 285 kts 13°
2026-05-04 18:24 55.29296 12.68597 7930 ft 285 kts 13°
2026-05-04 18:25 55.31188 12.69626 7671 ft 284 kts 13°
2026-05-04 18:25 55.33078 12.70649 7422 ft 282 kts 13°
2026-05-04 18:25 55.34957 12.71675 7167 ft 281 kts 13°
2026-05-04 18:25 55.36824 12.72707 6917 ft 281 kts 13°
2026-05-04 18:26 55.38663 12.73741 6681 ft 280 kts 14°
2026-05-04 18:26 55.40512 12.74788 6434 ft 278 kts 14°
2026-05-04 18:26 55.42350 12.75837 6179 ft 277 kts 14°
2026-05-04 18:26 55.44180 12.76883 5914 ft 276 kts 14°
2026-05-04 18:27 55.45995 12.77923 5658 ft 274 kts 14°
2026-05-04 18:27 55.47803 12.78966 5402 ft 273 kts 14°
2026-05-04 18:27 55.49584 12.79995 5145 ft 271 kts 15°
2026-05-04 18:27 55.51375 12.81030 4897 ft 270 kts 15°
2026-05-04 18:28 55.53161 12.82064 4634 ft 269 kts 15°
2026-05-04 18:28 55.54937 12.83088 4374 ft 267 kts 15°
2026-05-04 18:28 55.56686 12.84159 4172 ft 265 kts 18°
2026-05-04 18:28 55.58393 12.85348 4071 ft 263 kts 19°
2026-05-04 18:29 55.60081 12.86578 4039 ft 258 kts 20°
2026-05-04 18:29 55.61700 12.87778 4018 ft 245 kts 19°
2026-05-04 18:29 55.63161 12.89082 4014 ft 237 kts 33°
2026-05-04 18:29 55.64482 12.90820 4009 ft 236 kts 29°
2026-05-04 18:30 55.67302 12.93726 4000 ft 235 kts 25°
2026-05-04 18:30 55.68731 12.95139 4005 ft 237 kts 25°
2026-05-04 18:30 55.70224 12.96258 3998 ft 228 kts
2026-05-04 18:31 55.71630 12.95600 4053 ft 198 kts 320°
2026-05-04 18:31 55.72629 12.94000 4067 ft 193 kts 314°
2026-05-04 18:31 55.73600 12.92354 4019 ft 197 kts 308°
2026-05-04 18:31 55.74040 12.90103 3729 ft 198 kts 264°
2026-05-04 18:32 55.73741 12.87711 3482 ft 202 kts 257°
2026-05-04 18:32 55.73374 12.85314 3174 ft 200 kts 257°
2026-05-04 18:32 55.72950 12.82984 2885 ft 200 kts 244°
2026-05-04 18:32 55.71963 12.81249 2579 ft 204 kts 219°
2026-05-04 18:33 55.70893 12.79702 2251 ft 192 kts 226°
2026-05-04 18:33 55.69913 12.78193 1928 ft 181 kts 224°
2026-05-04 18:33 55.68983 12.76785 1671 ft 171 kts 225°
2026-05-04 18:33 55.68110 12.75433 1439 ft 162 kts 225°
2026-05-04 18:34 55.67270 12.74125 1217 ft 159 kts 225°
2026-05-04 18:34 55.66465 12.72870 1088 ft 145 kts 225°
2026-05-04 18:34 55.65741 12.71742 951 ft 135 kts 226°
2026-05-04 18:34 55.65063 12.70685 751 ft 131 kts 226°
2026-05-04 18:35 55.64361 12.69581 545 ft 139 kts 226°
2026-05-04 18:35 55.63626 12.68433 359 ft 143 kts 223°
2026-05-04 18:35 55.62869 12.67283 170 ft 143 kts 225°
2026-05-04 18:35 55.62134 12.66138 29 ft 135 kts 225°
2026-05-04 18:36 55.61524 12.65175 23 ft 93 kts 220°
2026-05-04 18:36 55.61162 12.64618 24 ft 63 kts 221°
2026-05-04 18:36 55.60843 12.64125 31 ft 50 kts 221°
2026-05-04 18:36 55.60722 12.63929 27 ft 24 kts 234°
2026-05-04 18:37 55.60748 12.63667 24 ft 23 kts 313°
2026-05-04 18:37 55.60885 12.63655 26 ft 21 kts 31°
2026-05-04 18:37 55.61050 12.63847 24 ft 21 kts 33°
2026-05-04 18:37 55.61136 12.63943 27 ft 22 kts 32°
2026-05-04 18:38 55.61261 12.64087 25 ft 22 kts 33°
2026-05-04 18:38 55.61388 12.64234 25 ft 22 kts 33°
2026-05-04 18:38 55.61516 12.64381 25 ft 22 kts 33°
2026-05-04 18:38 55.61644 12.64524 24 ft 21 kts 25°
2026-05-04 18:39 55.61770 12.64552 24 ft 17 kts 352°
2026-05-04 18:39 55.61846 12.64527 24 ft 6 kts 349°
2026-05-04 18:39 55.61868 12.64519 24 ft 0 kts 350°
2026-05-04 18:40 55.61876 12.64517 24 ft 3 kts 350°
2026-05-04 18:40 55.61932 12.64499 24 ft 13 kts 349°
2026-05-04 18:40 55.62025 12.64468 26 ft 14 kts 349°
2026-05-04 18:41 55.62122 12.64435 24 ft 15 kts 349°
2026-05-04 18:41 55.62227 12.64391 23 ft 16 kts 331°
2026-05-04 18:41 55.62300 12.64232 21 ft 18 kts 303°
2026-05-04 18:41 55.62371 12.64041 22 ft 18 kts 303°
2026-05-04 18:42 55.62442 12.63859 23 ft 18 kts 310°
2026-05-04 18:42 55.62528 12.63774 24 ft 10 kts 350°
2026-05-04 18:42 55.62594 12.63774 24 ft 6 kts
2026-05-04 18:42 55.62604 12.63778 24 ft 0 kts 13°
2026-05-04 18:44 55.62610 12.63781 24 ft 3 kts 14°
2026-05-04 18:44 55.62675 12.63839 24 ft 9 kts 34°
2026-05-04 18:44 55.62695 12.63934 24 ft 9 kts 101°
2026-05-04 18:45 55.62722 12.64016 24 ft 6 kts 34°
2026-05-04 18:45 55.62737 12.64032 24 ft 1 kts 32°
2026-05-04 18:45 55.62739 12.64034 24 ft 0 kts 32°